This is the latest recevied weather packets stored in our database for station/object KC5TIL-3. If no packets are shown the sender has not sent any weather packets the latest 10 day(s).
| Time | Temp. | Humidity | Pressure | Rain* | Wind** | Luminosity | Snow |
|---|---|---|---|---|---|---|---|
| 1787874276 | 35.56° C | 13% | 1010.8 hPa | 0 mm | 1.79 m/s, 309° | - | - |
| 1787873975 | 35.56° C | 13% | 1010.8 hPa | 0 mm | 2.68 m/s, 13° | - | - |
| 1787873677 | 35.56° C | 13% | 1010.8 hPa | 0 mm | 2.68 m/s, 78° | - | - |
| 1787873379 | 35.56° C | 13% | 1009.8 hPa | 0 mm | 3.13 m/s, 28° | - | - |
| 1787873077 | 35.56° C | 13% | 1009.8 hPa | 0 mm | 3.13 m/s, 25° | - | - |
| 1787872779 | 36.11° C | 13% | 1009.8 hPa | 0 mm | 1.79 m/s, 334° | - | - |
| 1787872481 | 36.11° C | 13% | 1010.8 hPa | 0 mm | 2.68 m/s, 143° | - | - |
| 1787872180 | 36.11° C | 13% | 1010.8 hPa | 0 mm | 2.24 m/s, 301° | - | - |
| 1787871882 | 36.11° C | 13% | 1010.8 hPa | 0 mm | 4.02 m/s, 347° | - | - |
| 1787871583 | 36.67° C | 13% | 1010.8 hPa | 0 mm | 2.68 m/s, 320° | - | - |
| 1787871282 | 36.11° C | 13% | 1010.8 hPa | 0 mm | 4.47 m/s, 28° | - | - |
| 1787870984 | 36.11° C | 13% | 1010.8 hPa | 0 mm | 3.13 m/s, 346° | - | - |
| 1787870686 | 36.67° C | 13% | 1010.8 hPa | 0 mm | 2.24 m/s, 320° | - | - |
| 1787870375 | 36.67° C | 13% | 1010.8 hPa | 0 mm | 3.13 m/s, 9° | - | - |
| 1787870077 | 36.11° C | 13% | 1010.8 hPa | 0 mm | 2.68 m/s, 47° | - | - |
| 1787869774 | 36.67° C | 13% | 1010.8 hPa | 0 mm | 4.02 m/s, 28° | - | - |
| 1787869472 | 36.67° C | 13% | 1010.8 hPa | 0 mm | 3.58 m/s, 266° | - | - |
| 1787869174 | 36.11° C | 13% | 1010.8 hPa | 0 mm | 2.24 m/s, 73° | - | - |
| 1787868876 | 36.11° C | 13% | 1010.8 hPa | 0 mm | 3.13 m/s, 351° | - | - |
| 1787868575 | 36.67° C | 13% | 1010.8 hPa | 0 mm | 2.24 m/s, 132° | - | - |
| 1787868276 | 36.67° C | 13% | 1010.8 hPa | 0 mm | 4.02 m/s, 140° | - | - |
| 1787867978 | 36.67° C | 13% | 1010.8 hPa | 0 mm | 3.58 m/s, 319° | - | - |
| 1787867677 | 36.67° C | 13% | 1010.8 hPa | 0 mm | 3.13 m/s, 72° | - | - |
| 1787867379 | 36.67° C | 13% | 1010.8 hPa | 0 mm | 2.24 m/s, 356° | - | - |
| 1787867081 | 36.67° C | 13% | 1010.8 hPa | 0 mm | 2.68 m/s, 138° | - | - |
* Rain latest hour (hover to see other rain measurements)
** Current wind speed in m/s (hover to see current wind gust speed)